,,Stat6,,Stat2,,Stat8,,Stat9,,Stat10,,Wind1,,Wind1,
time,status,PA1M_AVG,status,PR1M_SUM,status,RH1M_AVG,status,SR1M_AVG,status,TA1M_AVG,status,W1dAve1m,status,W1sAve1m,
2004-10-01, 00:00:00,VALID,919.433,VALID,0,VALID,98.2798,VALID,-0.0509425,VALID,17.889,VALID,128,VALID,0.87862,
2004-10-01, 00:01:00,VALID,919.414,VALID,0,VALID,98.2989,VALID,-0.0169808,VALID,17.8918,VALID,141,VALID,1.01935,
2004-10-01, 00:02:00,VALID,919.39,VALID,0,VALID,98.3434,VALID,-0.0509425,VALID,17.8885,VALID,142,VALID,1.00309,
2004-10-01, 00:03:00,VALID,919.359,VALID,0,VALID,98.3955,VALID,-0.0849042,VALID,17.9017,VALID,135,VALID,0.994735,
2004-10-01, 00:04:00,VALID,919.349,VALID,0,VALID,98.3268,VALID,-0.0339617,VALID,17.9012,VALID,132,VALID,1.01012,
2004-10-01, 00:05:00,VALID,919.313,VALID,0,VALID,98.2556,VALID,-0.0509425,VALID,17.9176,VALID,129,VALID,0.860618,
2004-10-01, 00:06:00,VALID,919.303,VALID,0,VALID,98.2429,VALID,-0.0169808,VALID,17.9148,VALID,133,VALID,1.06613,
2004-10-01, 00:07:00,VALID,919.283,VALID,0,VALID,98.2747,VALID,-0.0339617,VALID,17.9213,VALID,137,VALID,1.14169,
2004-10-01, 00:08:00,VALID,919.254,VALID,0,VALID,98.1221,VALID,-0.0339617,VALID,17.9275,VALID,132,VALID,1.34102,
2004-10-01, 00:09:00,VALID,919.248,VALID,0,VALID,97.7699,VALID,-0.0169808,VALID,17.9109,VALID,126,VALID,1.44478,
2004-10-01, 00:10:00,VALID,919.238,VALID,0,VALID,97.335,VALID,-0.0169808,VALID,17.8982,VALID,131,VALID,1.15396,
2004-10-01, 00:11:00,VALID,919.222,VALID,0,VALID,96.8937,VALID,-0.0509425,VALID,17.8724,VALID,122,VALID,1.1622,
2004-10-01, 00:12:00,VALID,919.221,VALID,0,VALID,96.2007,VALID,-0.0169808,VALID,17.8237,VALID,126,VALID,1.2441,
2004-10-01, 00:13:00,VALID,919.227,VALID,0,VALID,95.7289,VALID,-0.0339617,VALID,17.8106,VALID,114,VALID,0.924293,
2004-10-01, 00:14:00,VALID,919.224,VALID,0,VALID,95.6132,VALID,-0.0339617,VALID,17.8044,VALID,103,VALID,1.31605,
2004-10-01, 00:15:00,VALID,919.217,VALID,0,VALID,95.6069,VALID,-0.0169808,VALID,17.8048,VALID,92,VALID,0.831854,
2004-10-01, 00:16:00,VALID,919.21,VALID,0,VALID,95.5903,VALID,-0.0169808,VALID,17.7917,VALID,109,VALID,1.19586,
2004-10-01, 00:17:00,VALID,919.206,VALID,0,VALID,95.79,VALID,-0.0339617,VALID,17.7852,VALID,97,VALID,0.933416,
2004-10-01, 00:18:00,VALID,919.203,VALID,0,VALID,96.1104,VALID,-0.0679233,VALID,17.7691,VALID,104,VALID,1.09066,
2004-10-01, 00:19:00,VALID,919.2,VALID,0,VALID,96.3813,VALID,-0.0339617,VALID,17.7599,VALID,103,VALID,1.23456,
2004-10-01, 00:20:00,VALID,919.199,VALID,0,VALID,96.661,VALID,-0.0509425,VALID,17.7274,VALID,107,VALID,0.986151,
2004-10-01, 00:21:00,VALID,919.173,VALID,0,VALID,97.0209,VALID,-0.0339617,VALID,17.6983,VALID,118,VALID,0.912574,
2004-10-01, 00:22:00,VALID,919.152,VALID,0,VALID,97.4431,VALID,-0.0169808,VALID,17.6888,VALID,116,VALID,0.982515,
2004-10-01, 00:23:00,VALID,919.15,VALID,0,VALID,97.9034,VALID,-0.0339617,VALID,17.6985,VALID,124,VALID,0.760547,
2004-10-01, 00:24:00,VALID,919.126,VALID,0,VALID,98.3332,VALID,-0.0339617,VALID,17.6916,VALID,112,VALID,1.21037,
2004-10-01, 00:25:00,VALID,919.101,VALID,0,VALID,98.6562,VALID,-0.0339617,VALID,17.7018,VALID,120,VALID,0.966406,
2004-10-01, 00:26:00,VALID,919.076,VALID,0,VALID,98.9181,VALID,-0.0509425,VALID,17.705,VALID,113,VALID,1.03034,
2004-10-01, 00:27:00,VALID,919.067,VALID,0,VALID,99.0809,VALID,-0.0339617,VALID,17.705,VALID,115,VALID,0.694586,
2004-10-01, 00:28:00,VALID,919.048,VALID,0,VALID,99.161,VALID,-0.0509425,VALID,17.6981,VALID,120,VALID,0.717383,
2004-10-01, 00:29:00,VALID,919.042,VALID,0,VALID,99.2055,VALID,-0.0339617,VALID,17.6886,VALID,117,VALID,0.825218,
2004-10-01, 00:30:00,VALID,919.031,VALID,0,VALID,99.3047,VALID,-0.0339617,VALID,17.6792,VALID,114,VALID,0.56808,
2004-10-01, 00:31:00,VALID,919.017,VALID,0,VALID,99.428,VALID,-0.0679233,VALID,17.6658,VALID,133,VALID,0.625182,
2004-10-01, 00:32:00,VALID,919.001,VALID,0,VALID,99.5514,VALID,-0.0339617,VALID,17.6566,VALID,135,VALID,0.809451,
2004-10-01, 00:33:00,VALID,918.978,VALID,0,VALID,99.5997,VALID,-0.0849042,VALID,17.6536,VALID,133,VALID,0.62965,
2004-10-01, 00:34:00,VALID,918.974,VALID,0,VALID,99.6849,VALID,-0.0509425,VALID,17.6568,VALID,128,VALID,0.888338,
2004-10-01, 00:35:00,VALID,918.961,VALID,0,VALID,99.7497,VALID,-0.0169808,VALID,17.6568,VALID,129,VALID,1.04648,
2004-10-01, 00:36:00,VALID,918.968,VALID,0,VALID,99.8934,VALID,-0.0849042,VALID,17.6921,VALID,136,VALID,1.38516,
2004-10-01, 00:37:00,VALID,918.967,VALID,0,VALID,99.7828,VALID,-0.0339617,VALID,17.7439,VALID,128,VALID,1.33308,
2004-10-01, 00:38:00,VALID,918.958,VALID,0,VALID,99.5781,VALID,-0.0849042,VALID,17.7797,VALID,131,VALID,1.0092,
2004-10-01, 00:39:00,VALID,918.962,VALID,0,VALID,99.4255,VALID,-0.101885,VALID,17.7958,VALID,132,VALID,0.853468,
2004-10-01, 00:40:00,VALID,918.969,VALID,0,VALID,99.3441,VALID,-0.0679233,VALID,17.8083,VALID,138,VALID,0.933966,
2004-10-01, 00:41:00,VALID,918.963,VALID,0,VALID,99.325,VALID,-0.0849042,VALID,17.8406,VALID,130,VALID,1.00563,
2004-10-01, 00:42:00,VALID,918.959,VALID,0,VALID,99.161,VALID,-0.0339617,VALID,17.8599,VALID,128,VALID,0.87691,
2004-10-01, 00:43:00,VALID,918.938,VALID,0,VALID,99.0834,VALID,-0.0339617,VALID,17.8761,VALID,130,VALID,1.08505,
2004-10-01, 00:44:00,VALID,918.917,VALID,0,VALID,98.9893,VALID,-0.0339617,VALID,17.8927,VALID,126,VALID,1.05097,
2004-10-01, 00:45:00,VALID,918.9,VALID,0,VALID,98.955,VALID,-0.0339617,VALID,17.8788,VALID,149,VALID,1.10974,
2004-10-01, 00:46:00,VALID,918.893,VALID,0,VALID,98.9614,VALID,-0.0679233,VALID,17.8989,VALID,132,VALID,1.26162,
2004-10-01, 00:47:00,VALID,918.876,VALID,0,VALID,98.9156,VALID,-0.0339617,VALID,17.9021,VALID,127,VALID,1.27143,
2004-10-01, 00:48:00,VALID,918.87,VALID,0,VALID,98.7935,VALID,-0.0169808,VALID,17.8984,VALID,110,VALID,0.726918,
2004-10-01, 00:49:00,VALID,918.854,VALID,0,VALID,98.6244,VALID,-0.0509425,VALID,17.8793,VALID,129,VALID,0.655717,
2004-10-01, 00:50:00,VALID,918.845,VALID,0,VALID,98.7045,VALID,-0.0169808,VALID,17.8632,VALID,125,VALID,1.15532,
2004-10-01, 00:51:00,VALID,918.833,VALID,0,VALID,98.8342,VALID,-0.0679233,VALID,17.8539,VALID,133,VALID,1.06641,
2004-10-01, 00:52:00,VALID,918.818,VALID,0,VALID,98.899,VALID,-0.0169808,VALID,17.8309,VALID,137,VALID,1.05525,
2004-10-01, 00:53:00,VALID,918.818,VALID,0,VALID,98.9308,VALID,-0.101885,VALID,17.8216,VALID,142,VALID,0.866655,
2004-10-01, 00:54:00,VALID,918.805,VALID,0,VALID,98.9385,VALID,-0.0509425,VALID,17.7887,VALID,126,VALID,0.922238,
2004-10-01, 00:55:00,VALID,918.787,VALID,0,VALID,98.983,VALID,-0.0849042,VALID,17.7631,VALID,133,VALID,1.13832,
2004-10-01, 00:56:00,VALID,918.778,VALID,0,VALID,99.0555,VALID,-0.0169808,VALID,17.7373,VALID,136,VALID,1.09393,
2004-10-01, 00:57:00,VALID,918.762,VALID,0,VALID,99.1216,VALID,-0.0339617,VALID,17.7087,VALID,132,VALID,0.902344,
2004-10-01, 00:58:00,VALID,918.727,VALID,0,VALID,99.2258,VALID,-0.0509425,VALID,17.6667,VALID,122,VALID,1.15811,
2004-10-01, 00:59:00,VALID,918.706,VALID,0,VALID,99.3543,VALID,-0.0339617,VALID,17.6441,VALID,118,VALID,1.35392,
2004-10-01, 01:00:00,VALID,918.673,VALID,0,VALID,99.4509,VALID,-0.0679233,VALID,17.615,VALID,114,VALID,1.20922,
2004-10-01, 01:01:00,VALID,918.639,VALID,0,VALID,99.5221,VALID,-0.0679233,VALID,17.5987,VALID,118,VALID,1.05915,
2004-10-01, 01:02:00,VALID,918.619,VALID,0,VALID,99.6137,VALID,-0.0849042,VALID,17.5886,VALID,126,VALID,1.16815,
2004-10-01, 01:03:00,VALID,918.606,VALID,0,VALID,99.7192,VALID,-0.0679233,VALID,17.5886,VALID,128,VALID,1.20922,
2004-10-01, 01:04:00,VALID,918.579,VALID,0,VALID,99.6684,VALID,-0.0169808,VALID,17.5982,VALID,108,VALID,0.886719,
2004-10-01, 01:05:00,VALID,918.575,VALID,0,VALID,99.6671,VALID,-0.0339617,VALID,17.6116,VALID,130,VALID,1.09648,
2004-10-01, 01:06:00,VALID,918.559,VALID,0,VALID,99.6404,VALID,-0.0339617,VALID,17.6208,VALID,114,VALID,1.03216,
2004-10-01, 01:07:00,VALID,918.545,VALID,0,VALID,99.5132,VALID,-0.0339617,VALID,17.6271,VALID,125,VALID,0.853423,
2004-10-01, 01:08:00,VALID,918.548,VALID,0,VALID,99.498,VALID,-0.0679233,VALID,17.6368,VALID,105,VALID,0.756324,
2004-10-01, 01:09:00,VALID,918.527,VALID,0,VALID,99.4077,VALID,-0.0339617,VALID,17.6437,VALID,113,VALID,0.867188,
2004-10-01, 01:10:00,VALID,918.511,VALID,0,VALID,99.4051,VALID,-0.0679233,VALID,17.6402,VALID,107,VALID,1.0375,
2004-10-01, 01:11:00,VALID,918.504,VALID,0,VALID,99.3288,VALID,-0.0339617,VALID,17.6529,VALID,98,VALID,0.897294,
2004-10-01, 01:12:00,VALID,918.477,VALID,0,VALID,99.3225,VALID,-0.0169808,VALID,17.6434,VALID,108,VALID,0.787674,
2004-10-01, 01:13:00,VALID,918.476,VALID,0,VALID,99.353,VALID,-0.0169808,VALID,17.6333,VALID,104,VALID,0.71513,
2004-10-01, 01:14:00,VALID,918.442,VALID,0,VALID,99.3873,VALID,0,VALID,17.6202,VALID,113,VALID,0.885045,
2004-10-01, 01:15:00,VALID,918.435,VALID,0,VALID,99.4318,VALID,0,VALID,17.6206,VALID,123,VALID,0.809152,
2004-10-01, 01:16:00,VALID,918.392,VALID,0,VALID,99.456,VALID,-0.0169808,VALID,17.6045,VALID,114,VALID,0.815589,
2004-10-01, 01:17:00,VALID,918.39,VALID,0,VALID,99.4776,VALID,-0.0339617,VALID,17.5952,VALID,115,VALID,0.898438,
2004-10-01, 01:18:00,VALID,918.355,VALID,0,VALID,99.5374,VALID,-0.0339617,VALID,17.5821,VALID,117,VALID,1.21475,
2004-10-01, 01:19:00,VALID,918.361,VALID,0,VALID,99.5425,VALID,-0.0509425,VALID,17.5825,VALID,104,VALID,0.901972,
2004-10-01, 01:20:00,VALID,918.337,VALID,0,VALID,99.5755,VALID,-0.0169808,VALID,17.5627,VALID,114,VALID,0.85191,
2004-10-01, 01:21:00,VALID,918.334,VALID,0,VALID,99.5743,VALID,-0.0339617,VALID,17.55,VALID,94,VALID,0.915625,
2004-10-01, 01:22:00,VALID,918.326,VALID,0,VALID,99.6162,VALID,0,VALID,17.5305,VALID,92,VALID,0.777604,
2004-10-01, 01:23:00,VALID,918.326,VALID,0,VALID,99.6836,VALID,0,VALID,17.5109,VALID,111,VALID,0.934896,
2004-10-01, 01:24:00,VALID,918.317,VALID,0,VALID,99.7345,VALID,0,VALID,17.4952,VALID,109,VALID,1.10742,
2004-10-01, 01:25:00,VALID,918.298,VALID,0,VALID,99.7561,VALID,0.0169808,VALID,17.4758,VALID,106,VALID,1.01563,
2004-10-01, 01:26:00,VALID,918.284,VALID,0,VALID,99.7993,VALID,-0.0169808,VALID,17.4721,VALID,103,VALID,0.99721,
2004-10-01, 01:27:00,VALID,918.27,VALID,0,VALID,99.8426,VALID,0,VALID,17.4726,VALID,99,VALID,0.885045,
2004-10-01, 01:28:00,VALID,918.267,VALID,0,VALID,99.8184,VALID,0,VALID,17.4823,VALID,115,VALID,0.863814,
2004-10-01, 01:29:00,VALID,918.251,VALID,0,VALID,99.737,VALID,-0.0169808,VALID,17.4857,VALID,99,VALID,0.909884,
2004-10-01, 01:30:00,VALID,918.235,VALID,0,VALID,99.5514,VALID,0,VALID,17.4924,VALID,85,VALID,0.519345,
2004-10-01, 01:31:00,VALID,918.238,VALID,0,VALID,99.4293,VALID,0,VALID,17.5016,VALID,106,VALID,0.447173,
2004-10-01, 01:32:00,VALID,918.242,VALID,0,VALID,99.2615,VALID,0,VALID,17.5079,VALID,99,VALID,0.535156,
2004-10-01, 01:33:00,VALID,918.229,VALID,0,VALID,99.1063,VALID,0,VALID,17.5208,VALID,86,VALID,0.418155,
2004-10-01, 01:34:00,VALID,918.227,VALID,0,VALID,98.955,VALID,0,VALID,17.5302,VALID,54,VALID,0.107617,
2004-10-01, 01:35:00,VALID,918.222,VALID,0,VALID,98.7617,VALID,0,VALID,17.5401,VALID,50,VALID,0.512718,
2004-10-01, 01:36:00,VALID,918.217,VALID,0,VALID,98.5633,VALID,0,VALID,17.5339,VALID,50,VALID,0.657812,
2004-10-01, 01:37:00,VALID,918.198,VALID,0,VALID,98.4184,VALID,0,VALID,17.5208,VALID,49,VALID,0.65811,
2004-10-01, 01:38:00,VALID,918.192,VALID,0,VALID,98.4375,VALID,0,VALID,17.5145,VALID,56,VALID,0.712109,
2004-10-01, 01:39:00,VALID,918.195,VALID,0,VALID,98.4794,VALID,0,VALID,17.5115,VALID,75,VALID,0.931286,
2004-10-01, 01:40:00,VALID,918.186,VALID,0,VALID,98.4222,VALID,0,VALID,17.5111,VALID,62,VALID,0.787574,
2004-10-01, 01:41:00,VALID,918.173,VALID,0,VALID,98.3573,VALID,-0.0169808,VALID,17.5079,VALID,53,VALID,0.785251,
2004-10-01, 01:42:00,VALID,918.17,VALID,0,VALID,98.3154,VALID,0,VALID,17.4924,VALID,54,VALID,0.782292,
2004-10-01, 01:43:00,VALID,918.162,VALID,0,VALID,98.384,VALID,0,VALID,17.4698,VALID,53,VALID,0.880394,
2004-10-01, 01:44:00,VALID,918.167,VALID,0,VALID,98.4222,VALID,0.0339617,VALID,17.4433,VALID,56,VALID,0.745458,
2004-10-01, 01:45:00,VALID,918.153,VALID,0,VALID,98.3027,VALID,0.0169808,VALID,17.4209,VALID,58,VALID,0.980646,
2004-10-01, 01:46:00,VALID,918.144,VALID,0,VALID,98.1679,VALID,0,VALID,17.3986,VALID,69,VALID,0.900915,
2004-10-01, 01:47:00,VALID,918.138,VALID,0,VALID,97.967,VALID,0.0169808,VALID,17.3788,VALID,67,VALID,0.800509,
2004-10-01, 01:48:00,VALID,918.144,VALID,0,VALID,97.7063,VALID,0,VALID,17.3757,VALID,74,VALID,0.853338,
2004-10-01, 01:49:00,VALID,918.147,VALID,0,VALID,97.4392,VALID,-0.0169808,VALID,17.3532,VALID,76,VALID,0.919141,
2004-10-01, 01:50:00,VALID,918.149,VALID,0,VALID,97.2892,VALID,0,VALID,17.3336,VALID,81,VALID,0.719893,
2004-10-01, 01:51:00,VALID,918.144,VALID,0,VALID,96.9637,VALID,-0.0169808,VALID,17.3344,VALID,102,VALID,1.06426,
2004-10-01, 01:52:00,VALID,918.135,VALID,0,VALID,96.6356,VALID,0,VALID,17.3439,VALID,116,VALID,1.30545,
2004-10-01, 01:53:00,VALID,918.137,VALID,0,VALID,96.6165,VALID,-0.0169808,VALID,17.3826,VALID,116,VALID,1.15916,
2004-10-01, 01:54:00,VALID,918.141,VALID,0,VALID,96.5008,VALID,-0.0509425,VALID,17.4018,VALID,116,VALID,1.29247,
2004-10-01, 01:55:00,VALID,918.144,VALID,0,VALID,96.3673,VALID,-0.0169808,VALID,17.4149,VALID,110,VALID,1.13486,
2004-10-01, 01:56:00,VALID,918.156,VALID,0,VALID,96.4372,VALID,0,VALID,17.4278,VALID,108,VALID,0.86101,
2004-10-01, 01:57:00,VALID,918.164,VALID,0,VALID,96.5351,VALID,0,VALID,17.4179,VALID,101,VALID,0.771176,
2004-10-01, 01:58:00,VALID,918.17,VALID,0,VALID,96.6051,VALID,0,VALID,17.4244,VALID,120,VALID,1.13091,
2004-10-01, 01:59:00,VALID,918.154,VALID,0,VALID,96.7348,VALID,0.0169808,VALID,17.4218,VALID,122,VALID,1.41927,
2004-10-01, 02:00:00,VALID,918.153,VALID,0,VALID,96.8289,VALID,0,VALID,17.4082,VALID,120,VALID,1.3621,
2004-10-01, 02:01:00,VALID,918.143,VALID,0,VALID,96.6267,VALID,0.0169808,VALID,17.4018,VALID,114,VALID,1.29723,
2004-10-01, 02:02:00,VALID,918.132,VALID,0,VALID,96.3978,VALID,-0.0169808,VALID,17.3955,VALID,117,VALID,1.36337,
2004-10-01, 02:03:00,VALID,918.132,VALID,0,VALID,96.16,VALID,-0.0169808,VALID,17.3856,VALID,122,VALID,1.41497,
2004-10-01, 02:04:00,VALID,918.117,VALID,0,VALID,95.7734,VALID,0.0169808,VALID,17.3788,VALID,118,VALID,1.46466,
2004-10-01, 02:05:00,VALID,918.103,VALID,0,VALID,95.467,VALID,0,VALID,17.3824,VALID,120,VALID,1.40454,
2004-10-01, 02:06:00,VALID,918.078,VALID,0,VALID,95.0766,VALID,0,VALID,17.382,VALID,124,VALID,1.92496,
2004-10-01, 02:07:00,VALID,918.071,VALID,0,VALID,94.8706,VALID,0.0169808,VALID,17.4145,VALID,120,VALID,1.68998,
2004-10-01, 02:08:00,VALID,918.066,VALID,0,VALID,94.7434,VALID,-0.0169808,VALID,17.4308,VALID,124,VALID,1.66243,
2004-10-01, 02:09:00,VALID,918.044,VALID,0,VALID,94.6811,VALID,0,VALID,17.4405,VALID,117,VALID,1.76835,
2004-10-01, 02:10:00,VALID,918.048,VALID,0,VALID,94.9138,VALID,-0.0169808,VALID,17.4603,VALID,120,VALID,1.61719,
2004-10-01, 02:11:00,VALID,918.057,VALID,0,VALID,95.1656,VALID,-0.0169808,VALID,17.4829,VALID,122,VALID,1.7944,
2004-10-01, 02:12:00,VALID,918.032,VALID,0,VALID,95.3233,VALID,0.0339617,VALID,17.5053,VALID,123,VALID,1.89335,
2004-10-01, 02:13:00,VALID,918.041,VALID,0,VALID,95.4619,VALID,-0.0169808,VALID,17.5251,VALID,122,VALID,1.5278,
2004-10-01, 02:14:00,VALID,918.04,VALID,0,VALID,95.5522,VALID,0,VALID,17.5419,VALID,124,VALID,1.5322,
2004-10-01, 02:15:00,VALID,918.052,VALID,0,VALID,95.6196,VALID,0,VALID,17.518,VALID,121,VALID,1.53379,
2004-10-01, 02:16:00,VALID,918.063,VALID,0,VALID,95.7938,VALID,-0.0169808,VALID,17.5374,VALID,119,VALID,1.46615,
2004-10-01, 02:17:00,VALID,918.051,VALID,0,VALID,95.9349,VALID,-0.0339617,VALID,17.5537,VALID,120,VALID,1.49237,
2004-10-01, 02:18:00,VALID,918.036,VALID,0,VALID,96.1358,VALID,0,VALID,17.5535,VALID,121,VALID,1.68521,
2004-10-01, 02:19:00,VALID,918.032,VALID,0,VALID,96.263,VALID,-0.0169808,VALID,17.5599,VALID,116,VALID,1.60156,
2004-10-01, 02:20:00,VALID,918.027,VALID,0,VALID,96.3813,VALID,0,VALID,17.5729,VALID,117,VALID,1.52126,
2004-10-01, 02:21:00,VALID,918.031,VALID,0,VALID,96.4805,VALID,0,VALID,17.5726,VALID,122,VALID,1.50019,
2004-10-01, 02:22:00,VALID,918.029,VALID,0,VALID,96.4983,VALID,-0.0339617,VALID,17.5856,VALID,121,VALID,1.34073,
2004-10-01, 02:23:00,VALID,918.025,VALID,0,VALID,96.511,VALID,-0.0169808,VALID,17.5823,VALID,127,VALID,1.33376,
2004-10-01, 02:24:00,VALID,918.011,VALID,0,VALID,96.5796,VALID,0,VALID,17.589,VALID,130,VALID,1.28144,
2004-10-01, 02:25:00,VALID,918.011,VALID,0,VALID,96.5402,VALID,-0.0339617,VALID,17.5888,VALID,120,VALID,1.41024,
2004-10-01, 02:26:00,VALID,918.008,VALID,0,VALID,96.4906,VALID,-0.0169808,VALID,17.5985,VALID,120,VALID,1.42016,
2004-10-01, 02:27:00,VALID,918.001,VALID,0,VALID,96.5453,VALID,0,VALID,17.6114,VALID,117,VALID,1.29208,
2004-10-01, 02:28:00,VALID,918.003,VALID,0,VALID,96.6,VALID,-0.0339617,VALID,17.6146,VALID,128,VALID,1.17649,
2004-10-01, 02:29:00,VALID,917.994,VALID,0,VALID,96.6521,VALID,-0.0339617,VALID,17.6277,VALID,124,VALID,1.37429,
2004-10-01, 02:30:00,VALID,917.987,VALID,0,VALID,96.731,VALID,-0.0509425,VALID,17.634,VALID,124,VALID,1.50502,
2004-10-01, 02:31:00,VALID,917.977,VALID,0,VALID,96.7119,VALID,-0.0339617,VALID,17.6501,VALID,126,VALID,1.42057,
2004-10-01, 02:32:00,VALID,917.971,VALID,0,VALID,96.5466,VALID,-0.0339617,VALID,17.6632,VALID,133,VALID,1.4651,
2004-10-01, 02:33:00,VALID,917.966,VALID,0,VALID,96.3558,VALID,-0.0169808,VALID,17.6662,VALID,132,VALID,1.51927,
2004-10-01, 02:34:00,VALID,917.966,VALID,0,VALID,96.1511,VALID,0,VALID,17.6503,VALID,127,VALID,1.4097,
2004-10-01, 02:35:00,VALID,917.974,VALID,0,VALID,96.0392,VALID,-0.0509425,VALID,17.6602,VALID,128,VALID,1.25521,
2004-10-01, 02:36:00,VALID,917.961,VALID,0,VALID,95.8205,VALID,-0.0169808,VALID,17.6501,VALID,123,VALID,1.32393,
2004-10-01, 02:37:00,VALID,917.963,VALID,0,VALID,95.5763,VALID,0,VALID,17.6501,VALID,127,VALID,1.36275,
2004-10-01, 02:38:00,VALID,917.965,VALID,0,VALID,95.2572,VALID,-0.0679233,VALID,17.6406,VALID,122,VALID,1.37573,
2004-10-01, 02:39:00,VALID,917.971,VALID,0,VALID,95.0664,VALID,-0.0849042,VALID,17.6637,VALID,116,VALID,1.50745,
2004-10-01, 02:40:00,VALID,917.978,VALID,0,VALID,95.0168,VALID,-0.0509425,VALID,17.6955,VALID,119,VALID,1.22154,
2004-10-01, 02:41:00,VALID,917.994,VALID,0,VALID,94.9596,VALID,-0.0679233,VALID,17.7084,VALID,109,VALID,1.39342,
2004-10-01, 02:42:00,VALID,917.994,VALID,0,VALID,94.8706,VALID,-0.0509425,VALID,17.7147,VALID,114,VALID,1.35957,
2004-10-01, 02:43:00,VALID,917.999,VALID,0,VALID,94.938,VALID,-0.0679233,VALID,17.7274,VALID,110,VALID,1.38108,
2004-10-01, 02:44:00,VALID,918.006,VALID,0,VALID,94.8019,VALID,-0.0339617,VALID,17.734,VALID,107,VALID,1.31436,
2004-10-01, 02:45:00,VALID,918.02,VALID,0,VALID,94.8274,VALID,-0.0849042,VALID,17.7405,VALID,106,VALID,1.29741,
2004-10-01, 02:46:00,VALID,918.014,VALID,0,VALID,94.7167,VALID,-0.0509425,VALID,17.7566,VALID,104,VALID,1.36447,
2004-10-01, 02:47:00,VALID,918.015,VALID,0,VALID,94.6684,VALID,-0.0509425,VALID,17.7601,VALID,107,VALID,1.2867,
2004-10-01, 02:48:00,VALID,918.03,VALID,0,VALID,94.7218,VALID,-0.0509425,VALID,17.7728,VALID,110,VALID,1.42336,
2004-10-01, 02:49:00,VALID,918.017,VALID,0,VALID,94.91,VALID,-0.0679233,VALID,17.7924,VALID,117,VALID,1.45982,
2004-10-01, 02:50:00,VALID,918.006,VALID,0,VALID,94.9507,VALID,-0.0169808,VALID,17.7855,VALID,119,VALID,1.11151,
2004-10-01, 02:51:00,VALID,917.995,VALID,0,VALID,95.1821,VALID,-0.0339617,VALID,17.7896,VALID,117,VALID,1.4383,
2004-10-01, 02:52:00,VALID,918.003,VALID,0,VALID,95.3449,VALID,-0.0169808,VALID,17.7954,VALID,117,VALID,1.11501,
2004-10-01, 02:53:00,VALID,917.982,VALID,0,VALID,95.4492,VALID,-0.0169808,VALID,17.779,VALID,113,VALID,1.24237,
2004-10-01, 02:54:00,VALID,917.98,VALID,0,VALID,95.4822,VALID,-0.0169808,VALID,17.7762,VALID,117,VALID,1.20517,
2004-10-01, 02:55:00,VALID,917.974,VALID,0,VALID,95.5229,VALID,0,VALID,17.7695,VALID,119,VALID,1.09914,
2004-10-01, 02:56:00,VALID,917.967,VALID,0,VALID,95.6069,VALID,-0.0339617,VALID,17.7661,VALID,121,VALID,1.38972,
2004-10-01, 02:57:00,VALID,917.948,VALID,0,VALID,95.6539,VALID,-0.0509425,VALID,17.7599,VALID,121,VALID,1.32613,
2004-10-01, 02:58:00,VALID,917.93,VALID,0,VALID,95.6844,VALID,-0.0339617,VALID,17.7569,VALID,120,VALID,1.24926,
2004-10-01, 02:59:00,VALID,917.924,VALID,0,VALID,95.5738,VALID,-0.0339617,VALID,17.7213,VALID,115,VALID,1.18769,
2004-10-01, 03:00:00,VALID,917.921,VALID,0,VALID,95.3157,VALID,-0.0169808,VALID,17.7018,VALID,115,VALID,1.26154,
2004-10-01, 03:01:00,VALID,917.912,VALID,0,VALID,95.0156,VALID,-0.0509425,VALID,17.6888,VALID,111,VALID,1.11793,
2004-10-01, 03:02:00,VALID,917.914,VALID,0,VALID,94.7409,VALID,-0.0339617,VALID,17.6824,VALID,106,VALID,1.13317,
2004-10-01, 03:03:00,VALID,917.905,VALID,0,VALID,94.1026,VALID,-0.0339617,VALID,17.6656,VALID,97,VALID,1.27271,
2004-10-01, 03:04:00,VALID,917.912,VALID,0,VALID,93.8063,VALID,-0.0169808,VALID,17.7015,VALID,93,VALID,0.983073,
2004-10-01, 03:05:00,VALID,917.915,VALID,0,VALID,93.5977,VALID,-0.0849042,VALID,17.7373,VALID,98,VALID,1.02969,
2004-10-01, 03:06:00,VALID,917.914,VALID,0,VALID,93.6473,VALID,-0.0679233,VALID,17.7437,VALID,101,VALID,1.0343,
2004-10-01, 03:07:00,VALID,917.922,VALID,0,VALID,93.2137,VALID,-0.0339617,VALID,17.7571,VALID,92,VALID,1.0327,
2004-10-01, 03:08:00,VALID,917.921,VALID,0,VALID,92.4965,VALID,-0.0509425,VALID,17.7601,VALID,93,VALID,1.14621,
2004-10-01, 03:09:00,VALID,917.913,VALID,0,VALID,92.0413,VALID,-0.0509425,VALID,17.7827,VALID,99,VALID,1.19259,
2004-10-01, 03:10:00,VALID,917.913,VALID,0,VALID,91.745,VALID,-0.0169808,VALID,17.8117,VALID,98,VALID,1.20785,
2004-10-01, 03:11:00,VALID,917.897,VALID,0,VALID,91.1855,VALID,-0.0339617,VALID,17.8369,VALID,105,VALID,1.35863,
2004-10-01, 03:12:00,VALID,917.903,VALID,0,VALID,91.6153,VALID,-0.0339617,VALID,17.8791,VALID,116,VALID,1.31722,
2004-10-01, 03:13:00,VALID,917.891,VALID,0,VALID,91.5759,VALID,-0.0339617,VALID,17.9056,VALID,106,VALID,1.47447,
2004-10-01, 03:14:00,VALID,917.89,VALID,0,VALID,91.5555,VALID,-0.0679233,VALID,17.9157,VALID,106,VALID,1.10423,
2004-10-01, 03:15:00,VALID,917.89,VALID,0,VALID,91.6903,VALID,-0.0169808,VALID,17.9079,VALID,100,VALID,1.13114,
2004-10-01, 03:16:00,VALID,917.889,VALID,0,VALID,91.9281,VALID,-0.0679233,VALID,17.889,VALID,109,VALID,1.3254,
2004-10-01, 03:17:00,VALID,917.891,VALID,0,VALID,92.2231,VALID,-0.0679233,VALID,17.8761,VALID,111,VALID,1.07569,
2004-10-01, 03:18:00,VALID,917.899,VALID,0,VALID,92.2714,VALID,-0.0339617,VALID,17.8408,VALID,102,VALID,1.29668,
2004-10-01, 03:19:00,VALID,917.892,VALID,0,VALID,91.9701,VALID,-0.0339617,VALID,17.812,VALID,120,VALID,1.30583,
2004-10-01, 03:20:00,VALID,917.89,VALID,0,VALID,91.8887,VALID,-0.0679233,VALID,17.8055,VALID,107,VALID,1.26744,
2004-10-01, 03:21:00,VALID,917.895,VALID,0,VALID,92.0209,VALID,-0.0679233,VALID,17.7993,VALID,118,VALID,0.808933,
2004-10-01, 03:22:00,VALID,917.89,VALID,0,VALID,91.8951,VALID,-0.0169808,VALID,17.7891,VALID,114,VALID,0.986683,
2004-10-01, 03:23:00,VALID,917.884,VALID,0,VALID,92.3007,VALID,-0.0509425,VALID,17.753,VALID,105,VALID,0.855824,
2004-10-01, 03:24:00,VALID,917.881,VALID,0,VALID,92.4202,VALID,-0.0509425,VALID,17.7439,VALID,102,VALID,0.930398,
2004-10-01, 03:25:00,VALID,917.883,VALID,0,VALID,92.5652,VALID,-0.0509425,VALID,17.7246,VALID,113,VALID,0.819754,
2004-10-01, 03:26:00,VALID,917.876,VALID,0,VALID,93.0052,VALID,-0.0169808,VALID,17.6918,VALID,107,VALID,0.88956,
2004-10-01, 03:27:00,VALID,917.872,VALID,0,VALID,93.3091,VALID,0,VALID,17.6725,VALID,113,VALID,0.718192,
2004-10-01, 03:28:00,VALID,917.855,VALID,0,VALID,93.5583,VALID,0,VALID,17.6469,VALID,117,VALID,1.00533,
2004-10-01, 03:29:00,VALID,917.869,VALID,0,VALID,93.3396,VALID,-0.0169808,VALID,17.6178,VALID,112,VALID,0.926711,
2004-10-01, 03:30:00,VALID,917.849,VALID,0,VALID,92.9924,VALID,0,VALID,17.6148,VALID,101,VALID,1.03711,
2004-10-01, 03:31:00,VALID,917.852,VALID,0,VALID,92.2409,VALID,-0.0169808,VALID,17.6372,VALID,104,VALID,1.2407,
2004-10-01, 03:32:00,VALID,917.854,VALID,0,VALID,92.1443,VALID,-0.0339617,VALID,17.6921,VALID,98,VALID,0.973514,